Location: Huntsville
(34.7300°N, 86.5860°W)
Time: 18:00:45
(UTC-05:00)

ISS - Visible Passes

Search period start: 05 May 2021 00:00
Search period end: 15 May 2021 00:00
Orbit: 418 x 421 km, 51.6° (Epoch: 05 May)

Date Brightness Start Highest point End Pass type
(mag) Time Alt. Az. Time Alt. Az. Time Alt. Az.
10 May -0.7 05:15:58 10° NNW 05:18:15 17° NNE 05:20:31 10° ENE visible
11 May -0.4 04:29:18 10° N 04:30:35 12° NNE 04:31:52 10° NE visible
13 May -1.3 04:30:00 10° NNW 04:32:53 25° NE 04:35:44 10° E visible
13 May -3.5 21:10:30 10° SSW 21:13:24 46° SSE 21:13:24 46° SSE visible
14 May -0.6 03:42:59 10° NNW 03:45:16 17° NNE 03:47:32 10° ENE visible
14 May -2.7 20:23:34 10° S 20:26:23 25° SE 20:29:14 10° ENE visible
14 May -1.5 22:00:14 10° W 22:03:08 26° NW 22:06:03 10° NNE visible
